Terminal Aerodrome Forecast
Issued by NWS

Home | Current Version | Previous Version | Text Only | Print | Product List | Glossary On
Versions: 1 2 3 4 5 6 7 8 9 10 11 12 13 14 15 16 17 18 19
000
FTUS43 KFGF 250207 AAA
TAFTVF
TAF AMD
KTVF 250207Z 2502/2524 31009KT P6SM OVC005
     FM250700 35007KT P6SM OVC003
     FM251500 35007KT P6SM OVC008
     FM251800 36007KT P6SM OVC010=

USA.gov is the U.S. government's official web portal to all federal, state and local government web resources and services.